sat.trackr.live / text

‹ back to catalog

STARLINK-5432

NORAD 54848 · 2022-177AE

PAYLOAD ACTIVE UNKNOWN

§ Identity

Operator
Country
US
Launch date
2022-12-28
Launch site
AFETR
Launch vehicle
Mass (kg)
RCS (m²)

Purposes: comms

External: N2YO · Heavens-Above · Gunter

§ Orbital elements

Epoch: 2026-05-24T22:57:50.920704Z

Period
94.27 min
Inclination
43.0032°
Eccentricity
0.0001082
Mean motion
15.27567728 rev/d
Perigee alt
482.3 km
Apogee alt
483.8 km
Semi-major
6,861.2 km
B*
-2.5266e-5
RAAN
50.9588°
Arg perigee
238.9197°
Mean anomaly
121.1548°
Rev number
18,875

§ Raw data

STARLINK-54321 54848U 22177AE  26144.95683936 -.00000957  00000+0 -25266-4 0  99912 54848  43.0032  50.9588 0001082 238.9197 121.1548 15.27567728188759

JSON: /api/v1/satellites/54848 · /tle

For live sub-satellite position, see the globe view (requires WebGL).

§ Visibility from observer

Set your observer location to see the next 7 days of passes ≥ 10°. The values pass through the URL so the page stays shareable.

No JS? Fill the form by hand. The geolocation button needs JavaScript.